Theta_e
319 318 318 319 319 320 320 321 321 321 321 321 322 323 323 323 323 324 324 324 324 324 324 325 325 325 325 325 326 326 324 321 321 316 315 317 327 337 335 335 332 334 329 317 315 311 309 310 308 311 312 314 315 311 318 315 314 313 302 298 294 296 296 299 298 300 300 298 299 301 302 301 299 303 304 304 303 303 303 303 304 306 306 307 308 309 313 315
319 319 319 319 319 319 319 320 320 320 321 321 322 322 322 322 323 323 323 323 323 323 324 325 325 325 325 325 325 325 323 323 316 315 314 328 336 335 338 337 335 330 327 316 312 309 308 307 308 310 309 307 321 309 313 312 315 305 300 298 294 298 300 303 302 302 300 299 302 302 302 301 300 302 304 300 300 300 300 302 302 303 305 307 308 309 312 314
318 319 319 319 319 319 319 319 320 320 321 321 322 322 322 321 322 322 323 323 323 323 324 324 325 325 325 325 325 323 323 322 317 311 322 334 338 337 339 336 332 331 319 313 313 311 309 309 309 309 308 304 309 306 313 308 309 305 300 295 297 302 303 304 304 303 304 303 301 301 301 300 301 302 305 300 299 300 299 299 300 301 302 303 304 307 311 312
318 318 318 318 319 319 319 320 320 319 320 321 321 321 321 321 321 322 322 322 323 323 323 324 324 324 324 324 326 322 324 325 312 313 323 341 340 338 339 334 332 329 321 316 314 313 312 311 309 309 309 303 306 309 305 309 304 305 301 297 299 302 300 302 303 304 304 304 302 301 301 300 301 302 302 300 298 299 300 303 302 302 303 303 304 305 309 310
318 318 318 318 318 319 319 319 319 319 320 320 321 321 321 321 321 321 322 322 322 322 323 323 324 324 324 324 323 324 323 308 308 321 327 338 339 340 336 336 332 322 319 315 314 312 311 308 307 310 307 300 304 303 303 306 306 307 300 302 303 303 300 303 303 303 303 304 302 301 299 300 303 302 301 300 297 296 300 303 303 304 305 304 304 304 305 305
318 318 318 318 318 319 319 319 319 319 320 320 320 321 321 321 321 321 321 321 321 322 322 323 323 323 323 324 322 325 316 293 312 324 333 337 339 340 336 334 331 320 315 313 310 310 309 307 305 304 301 300 299 297 300 305 308 299 302 303 303 303 301 304 304 305 302 303 301 300 302 302 301 300 302 301 301 302 305 306 306 306 307 307 306 306 305 305
317 317 317 318 318 318 318 318 318 319 320 321 321 321 321 321 321 321 321 321 321 322 322 322 323 323 323 322 323 318 311 306 315 335 334 338 338 338 336 333 329 325 315 311 309 309 307 305 304 302 301 300 300 300 302 302 303 301 299 301 302 303 301 303 302 301 302 302 301 303 303 300 300 297 301 301 303 305 305 306 307 307 308 308 306 306 305 305
318 317 318 318 318 318 318 318 318 319 320 321 321 321 321 321 321 320 321 321 321 321 322 321 322 323 321 319 323 314 310 306 321 333 332 337 335 333 331 326 319 321 313 309 308 307 308 304 302 305 300 298 300 300 302 302 302 298 300 302 303 302 302 302 302 302 303 302 303 302 301 300 301 300 301 300 303 304 305 306 306 306 306 307 306 305 305 305
318 318 318 318 318 318 317 318 319 320 320 320 321 321 321 321 321 320 320 321 321 321 321 321 321 322 322 318 316 306 305 324 325 331 335 331 327 327 324 317 317 313 311 310 310 309 309 304 304 305 298 299 302 300 301 298 296 300 300 300 301 301 303 302 301 301 301 302 302 300 300 301 301 302 300 302 303 304 305 305 305 305 304 304 305 304 304 304
319 319 318 317 318 318 318 318 319 319 319 320 320 320 321 321 321 320 321 321 320 320 320 321 321 321 318 318 314 302 321 313 332 331 331 328 324 322 320 322 314 313 310 309 310 308 306 306 311 309 306 302 303 300 301 299 297 301 300 300 299 300 300 301 300 301 301 300 300 298 299 300 301 300 295 301 303 303 302 302 303 302 302 303 303 303 303 303
319 319 319 318 318 318 318 318 318 318 319 320 320 320 320 321 321 321 321 320 320 320 320 320 323 319 317 315 306 304 319 321 325 328 327 325 320 317 317 320 314 313 311 312 309 310 309 309 314 311 310 300 301 300 300 300 302 301 300 299 299 299 300 300 300 300 300 299 300 299 298 299 300 300 297 301 303 303 302 303 303 302 302 302 302 303 303 303
319 320 319 318 318 318 318 318 318 318 319 319 319 320 320 321 321 320 320 320 320 320 320 320 321 319 315 311 306 310 315 322 328 324 322 322 320 321 319 315 315 319 313 309 312 317 316 315 314 307 297 304 297 300 299 299 301 299 298 294 296 298 297 299 298 300 300 299 300 300 297 295 296 295 300 302 303 302 302 302 302 302 302 302 302 303 302 301
320 320 319 318 318 318 317 317 318 318 319 319 319 320 321 321 320 320 320 319 320 320 319 320 319 318 317 304 308 320 318 322 324 322 323 319 317 316 315 319 315 312 314 311 309 311 313 312 311 303 305 302 300 296 300 300 299 300 297 295 294 295 294 299 301 301 299 299 299 298 286 290 295 298 300 302 301 301 300 299 299 301 302 302 302 302 302 302
320 319 319 319 319 317 317 318 318 319 319 319 320 320 320 320 320 320 319 318 319 319 319 320 319 318 313 303 313 314 317 322 319 321 321 319 316 319 318 319 318 312 317 313 313 310 313 307 311 306 307 302 299 307 300 299 300 294 297 296 291 290 290 299 300 299 297 298 299 298 288 290 295 299 301 301 301 300 299 299 299 301 302 302 302 301 301 302
319 319 319 319 319 317 317 319 319 319 319 320 320 320 320 320 320 319 319 320 320 319 319 319 319 317 303 304 310 316 320 317 313 318 322 314 314 315 314 315 316 316 310 309 313 312 309 314 311 303 299 304 303 299 295 295 296 296 291 288 292 289 292 298 302 298 296 296 298 295 288 290 295 297 300 300 300 300 298 299 300 301 301 302 302 301 300 301
319 319 319 319 318 317 318 319 319 319 320 320 320 320 321 319 319 319 319 319 319 320 319 317 315 317 305 299 311 322 317 312 309 316 314 319 318 314 314 312 312 310 311 307 310 311 307 313 301 301 300 301 297 293 292 291 292 294 291 289 290 291 293 295 300 300 299 296 296 295 289 292 293 297 299 300 300 300 299 299 300 301 301 301 301 301 299 301
320 319 319 319 318 318 319 319 319 320 321 321 320 321 319 317 317 320 320 319 319 320 320 313 312 309 298 309 308 309 307 313 313 317 315 314 315 314 310 310 307 307 311 306 309 311 306 302 304 301 302 296 296 296 288 286 288 290 293 290 292 291 293 291 298 300 298 296 292 295 291 292 295 297 299 300 300 299 298 299 300 300 299 300 301 300 299 301
320 320 320 319 319 319 319 320 320 321 321 321 320 321 318 320 319 317 317 318 322 319 318 319 313 309 302 307 302 304 311 308 317 313 314 311 313 311 308 305 306 305 305 303 308 301 303 297 300 294 296 295 295 292 286 284 289 289 291 291 292 294 294 293 292 297 298 296 294 292 292 293 294 296 297 299 300 299 299 299 299 299 299 300 300 300 301 303
321 321 320 320 320 320 320 320 322 322 321 321 323 318 320 321 320 320 319 314 314 310 303 301 304 297 298 306 308 307 314 313 314 313 306 309 313 310 311 309 309 302 300 298 298 299 301 300 301 295 290 292 292 293 291 292 294 293 293 292 292 290 292 292 296 299 298 296 295 294 293 294 295 296 298 299 300 299 299 299 299 300 300 300 300 301 302 302
321 321 321 321 321 321 320 321 322 322 322 319 320 319 316 314 313 308 309 311 305 306 307 307 306 307 308 310 311 307 313 315 306 311 310 315 309 308 305 304 308 303 299 296 298 297 301 292 289 288 292 294 297 297 296 297 296 295 294 293 292 292 293 296 297 298 298 295 294 294 294 294 294 295 297 298 299 298 298 297 298 299 299 300 300 301 301 301
321 321 321 321 321 321 321 322 322 322 321 320 319 317 308 305 303 302 304 308 311 310 309 310 311 310 310 313 310 308 305 304 307 307 312 315 308 304 300 302 299 296 297 299 299 301 299 291 292 295 296 297 298 299 299 298 297 294 293 292 292 292 291 295 296 298 300 294 291 293 292 292 294 296 297 299 298 297 297 298 298 298 300 300 300 301 300 300
321 321 321 321 321 322 322 322 322 322 321 320 319 312 310 307 309 310 307 302 313 314 314 313 314 312 315 314 309 311 309 304 304 307 313 311 304 300 300 300 297 295 299 298 298 294 292 290 295 298 299 300 299 299 298 297 295 295 292 291 290 290 294 296 297 298 296 293 289 291 290 291 294 296 298 298 298 299 299 299 298 300 299 299 299 298 298 298
321 321 321 322 321 322 322 322 322 321 320 319 317 314 311 311 314 314 310 303 301 309 308 309 308 310 311 312 307 310 304 302 302 304 304 309 302 301 302 297 297 297 299 298 293 293 289 293 297 300 300 298 297 298 297 296 295 292 291 288 287 292 291 288 294 296 295 292 290 292 291 292 295 297 297 299 299 298 301 301 301 300 298 297 297 297 296 296
321 321 321 321 321 322 322 322 321 321 321 319 315 312 314 315 315 313 306 299 301 307 311 309 308 307 308 305 306 305 303 304 305 304 308 306 300 303 301 299 297 297 296 297 296 294 293 298 300 299 299 297 295 296 295 293 291 294 293 291 290 291 292 292 291 294 295 295 295 291 290 290 293 294 295 297 299 299 299 300 300 299 299 299 298 297 296 295
321 320 321 321 320 321 321 321 319 320 317 320 313 315 313 316 313 315 304 301 301 302 310 312 311 311 305 313 310 301 304 305 302 304 308 309 304 300 299 303 299 295 297 298 297 295 295 299 301 297 298 296 296 293 294 294 290 291 294 294 294 294 292 293 293 292 288 287 290 290 281 284 291 293 294 296 296 296 297 296 295 296 296 296 294 294 295 295
321 321 321 320 320 321 322 317 318 322 319 314 314 315 316 315 316 312 304 296 292 303 304 300 311 299 312 301 309 306 302 298 303 306 309 307 305 301 299 296 299 294 296 298 296 296 296 299 300 297 296 295 295 293 294 296 290 288 290 294 294 293 293 292 291 289 282 281 289 292 281 280 290 291 294 296 295 293 295 294 294 295 294 294 293 293 293 293
321 321 321 321 321 321 317 314 320 320 315 313 317 316 316 316 316 311 301 294 290 303 300 300 303 303 308 303 303 305 290 295 302 304 304 309 302 307 296 295 296 298 298 298 292 290 296 296 294 295 296 294 292 291 295 295 290 287 293 294 293 292 290 291 291 289 286 290 291 291 288 281 282 288 295 296 292 292 292 293 293 293 293 292 292 292 292 292
321 321 320 321 321 320 320 320 320 316 313 315 316 315 314 314 314 310 299 285 285 305 298 298 302 308 307 300 305 297 296 300 296 299 302 305 303 300 297 295 295 296 296 295 283 296 295 295 294 294 292 291 290 294 297 299 292 291 293 294 292 292 291 291 288 286 286 284 281 285 290 281 281 288 294 295 289 290 290 291 291 292 292 291 291 291 291 291
320 320 320 320 321 320 320 319 318 315 313 313 312 312 312 312 308 302 294 283 300 300 308 297 310 305 301 302 297 298 296 298 294 298 305 305 306 300 293 296 296 295 297 295 290 294 296 295 297 297 293 290 294 293 295 297 292 295 294 295 295 293 293 291 285 284 283 282 280 284 289 281 282 290 291 291 289 288 289 290 290 290 290 290 290 290 290 290
319 319 319 319 319 318 318 318 317 313 311 311 309 308 308 305 304 293 287 281 302 293 301 300 299 297 298 294 295 297 295 296 299 299 300 299 300 303 299 297 295 294 294 296 294 294 294 295 297 294 293 296 292 291 294 296 295 294 295 292 290 290 288 287 286 285 282 278 281 287 289 286 279 287 289 289 290 290 290 290 290 290 290 290 289 289 289 289
315 316 318 319 318 320 320 315 319 311 311 310 309 309 308 307 295 288 282 292 299 301 302 299 296 300 295 294 292 296 299 296 296 297 294 299 296 297 297 292 298 291 288 288 289 293 294 294 293 295 297 296 295 293 293 294 294 293 288 286 286 285 285 285 283 283 278 277 284 286 289 289 278 284 289 291 292 293 291 290 290 289 289 289 288 289 288 287
313 314 317 320 319 322 316 314 312 313 310 310 311 311 309 293 297 285 286 300 290 296 296 295 299 298 296 300 298 298 295 295 296 295 293 291 292 291 290 290 290 285 284 284 285 290 288 290 294 298 296 295 293 291 291 292 292 289 287 286 281 280 282 278 280 275 277 277 282 284 288 283 284 288 292 292 291 292 292 292 290 288 288 288 288 288 287 287
312 311 312 316 317 319 319 315 315 312 312 312 313 310 298 288 282 292 291 296 292 299 296 302 297 296 298 297 297 297 297 295 296 294 298 297 294 294 296 294 297 292 284 288 286 286 287 292 294 294 295 296 296 286 286 284 287 287 284 282 281 278 278 275 278 281 281 282 283 284 289 282 288 291 296 293 291 291 291 291 290 289 288 287 287 287 287 286
311 313 315 315 317 319 314 313 314 314 313 313 310 301 295 285 285 297 294 295 297 299 299 298 295 297 298 295 299 298 293 299 294 294 296 295 292 290 294 296 296 295 293 288 284 285 281 282 290 292 288 295 294 293 292 292 288 287 290 288 283 282 280 276 279 277 278 280 284 287 284 280 281 286 289 290 290 289 289 289 289 288 288 287 287 286 286 286
313 314 314 315 316 318 314 315 314 315 316 311 304 296 285 285 290 290 291 296 299 297 297 298 297 297 296 297 300 300 298 293 298 296 293 293 290 291 292 294 296 296 294 287 289 286 288 286 293 297 294 294 292 295 299 294 289 289 291 289 284 282 287 282 283 281 280 281 281 283 281 284 287 290 290 290 289 289 289 288 288 287 287 286 286 285 285 285
311 311 311 311 312 316 315 314 314 315 313 306 297 290 286 291 288 295 294 303 300 298 295 297 296 293 291 292 298 297 303 294 297 295 293 294 295 292 296 296 296 296 291 286 290 284 287 283 294 294 295 292 292 296 296 296 281 286 287 282 286 292 290 284 283 284 283 281 279 283 283 287 293 289 289 288 287 287 287 287 286 286 286 285 284 284 283 284
307 309 305 308 311 316 315 315 315 313 311 303 294 287 294 295 300 301 302 300 299 299 297 291 292 291 291 290 291 295 296 297 294 293 288 296 291 296 294 296 300 297 296 294 289 294 284 287 295 293 291 294 293 295 295 296 296 287 282 286 292 294 291 285 278 281 278 276 278 283 280 282 282 278 287 286 285 285 285 285 285 285 284 283 283 283 283 283
305 304 305 305 311 316 315 315 315 312 307 300 292 293 300 295 302 301 303 302 299 300 295 292 293 297 292 292 292 294 297 292 293 292 288 293 287 298 296 295 299 298 297 298 290 290 293 283 290 294 295 294 294 294 292 295 295 290 287 293 284 281 280 284 281 274 273 274 276 278 281 282 283 284 284 284 284 284 284 284 283 283 283 282 282 282 282 281
305 304 299 307 314 315 313 315 313 307 301 295 292 291 298 298 302 303 301 301 302 299 294 296 293 296 295 291 294 295 294 289 294 291 288 291 286 296 295 298 296 296 296 296 291 292 294 282 285 293 294 293 293 290 282 286 291 292 292 287 292 286 282 280 282 280 281 277 278 277 282 279 286 284 287 287 285 284 284 283 282 282 282 282 282 282 282 282
301 296 295 311 314 315 314 314 307 304 299 291 293 293 302 296 300 302 299 300 298 297 295 295 297 293 295 294 295 292 295 294 292 291 291 291 291 297 295 299 295 295 295 296 293 297 286 291 279 288 290 293 283 287 284 287 283 283 284 282 286 284 287 286 285 283 279 277 277 277 276 281 284 287 286 285 286 286 284 283 282 282 282 282 282 282 283 284
303 297 297 309 313 314 313 308 301 296 295 297 299 297 298 296 298 299 302 303 300 303 298 296 295 292 294 292 292 295 292 292 292 290 291 291 290 285 295 294 297 294 297 295 290 290 285 284 282 284 284 283 286 293 292 292 291 289 288 283 285 284 282 279 278 286 282 280 277 277 276 282 285 288 287 285 285 284 285 284 283 283 283 283 284 284 284 284
297 288 296 309 312 312 306 297 297 300 297 294 294 298 295 300 295 298 299 302 300 297 301 297 297 295 294 294 294 294 292 290 291 289 290 289 294 292 294 296 296 296 292 286 289 292 288 285 282 281 283 285 289 293 296 296 293 292 292 288 291 288 286 282 277 281 283 281 283 282 279 280 283 285 286 286 286 286 285 285 283 284 283 283 284 284 284 283
295 292 303 305 312 308 302 295 297 296 294 297 303 301 301 299 297 299 297 299 297 299 297 296 295 293 295 294 294 292 293 289 291 289 291 291 291 291 294 296 297 294 294 288 293 289 292 282 280 283 288 289 292 294 293 293 292 290 291 290 287 284 286 283 283 282 279 282 281 281 278 282 286 286 285 286 287 287 286 286 285 285 284 284 284 284 284 284
296 297 299 306 308 308 298 288 289 292 294 298 298 297 301 299 298 296 296 297 296 296 295 294 296 297 293 296 294 291 293 284 290 290 288 292 288 295 293 295 297 290 293 289 287 291 283 284 283 279 280 282 285 287 287 288 288 283 282 284 287 286 285 284 283 284 280 282 282 278 273 281 283 286 286 286 285 285 285 285 286 285 285 285 284 284 284 284
297 300 299 302 306 304 293 296 293 292 293 294 295 293 295 296 298 297 297 296 299 297 295 293 296 296 293 296 294 294 294 291 285 291 291 290 291 295 293 294 296 292 294 292 294 295 286 284 282 276 275 273 273 274 274 279 283 285 286 285 288 287 285 283 280 282 278 283 280 277 278 285 285 284 285 286 286 286 285 284 284 285 285 283 284 284 284 283
292 286 295 296 300 299 299 301 297 295 292 292 291 293 295 292 296 299 299 297 298 297 296 296 296 296 293 292 290 291 290 294 290 285 286 286 288 288 290 291 292 288 292 293 290 291 283 285 283 282 280 278 280 281 285 285 283 281 281 283 284 286 284 283 282 280 277 279 278 280 280 281 283 286 286 284 284 284 284 283 282 282 281 282 283 284 284 283
294 287 291 287 297 296 294 298 295 295 291 295 288 292 289 291 293 295 300 292 297 295 295 295 293 290 289 290 289 289 290 289 290 288 287 286 288 287 293 292 290 289 291 290 292 285 283 280 282 282 282 283 284 284 286 286 282 283 282 282 283 282 281 280 279 277 281 279 275 282 281 278 280 282 283 284 284 285 286 284 282 281 281 282 282 282 285 282
283 288 294 297 291 287 289 290 295 294 295 294 290 293 290 289 290 288 296 297 297 296 291 293 294 293 292 291 290 284 286 286 286 284 288 287 287 287 285 290 287 290 289 288 291 284 280 276 281 282 279 283 285 286 286 285 284 283 282 282 281 283 281 279 278 280 281 278 275 280 281 278 280 282 283 285 284 284 285 283 283 282 282 280 280 280 280 280
292 288 288 293 289 293 293 294 295 294 292 294 291 292 289 289 288 291 292 291 293 291 294 284 289 291 291 292 289 284 284 281 282 286 283 281 282 282 281 284 287 288 287 283 285 285 281 276 280 281 278 281 282 283 284 282 282 282 281 282 282 282 281 281 280 282 281 280 281 281 281 280 282 283 283 281 281 281 280 281 281 280 279 280 280 279 279 279
286 286 284 292 291 290 293 294 294 293 289 292 287 289 290 290 288 291 293 291 285 289 294 289 286 287 287 289 288 285 286 286 285 282 286 283 282 281 279 281 280 283 282 280 283 282 280 275 283 276 275 273 277 280 282 281 281 279 280 281 281 281 281 281 281 281 281 280 281 280 279 279 282 280 281 282 281 281 280 280 279 279 280 279 278 278 278 279
291 290 291 286 285 287 288 290 291 290 288 289 287 289 290 290 289 291 291 294 291 288 291 288 287 285 283 287 288 285 286 284 284 284 284 283 279 283 279 278 283 277 280 276 279 278 282 276 278 275 273 273 277 275 276 276 276 275 276 278 279 279 277 279 278 280 278 277 278 278 276 277 278 278 277 279 279 278 278 278 278 278 277 277 277 277 278 278
292 292 293 288 282 290 284 287 288 288 285 288 289 289 288 289 291 291 287 291 289 291 291 290 289 287 283 283 283 287 287 285 286 287 287 286 287 285 286 284 283 280 277 276 281 276 276 276 274 274 273 274 277 275 275 276 275 273 274 277 279 280 280 281 281 282 281 281 277 274 275 276 276 279 277 277 276 276 276 277 276 277 277 277 277 277 277 278
Wind_Speed
8 8 8 8 8 9 9 9 10 10 10 10 10 10 10 11 11 11 11 11 11 12 12 12 12 11 11 11 11 10 11 4 4 6 7 10 6 6 9 11 11 9 7 3 3 4 4 4 4 3 3 1 2 2 1 1 1 0 1 2 4 6 6 3 5 4 4 4 4 2 1 2 3 0 1 2 3 5 9 10 5 7 8 8 8 5 6 8
7 7 8 8 8 9 9 10 10 9 10 10 10 10 11 11 11 12 11 11 11 12 12 12 13 13 12 12 12 12 9 4 6 7 14 3 12 10 8 9 10 11 7 2 5 4 3 4 4 4 2 2 3 1 3 0 2 2 2 3 5 3 4 7 6 6 4 5 7 6 5 4 5 4 1 4 4 4 7 10 5 7 7 9 10 7 10 9
7 7 7 8 9 9 9 10 10 10 10 10 10 11 11 12 11 11 12 12 12 12 13 13 13 13 13 13 13 13 7 3 6 8 3 5 12 10 9 9 11 10 8 4 4 5 5 2 3 5 3 4 3 2 1 2 3 4 3 4 6 4 6 7 5 6 3 5 5 5 4 5 5 6 1 5 6 4 8 10 7 5 6 7 5 7 7 9
7 7 8 8 9 9 9 10 10 10 10 10 11 11 11 12 12 12 12 12 12 12 13 13 13 13 14 14 13 9 5 4 3 2 2 4 7 9 9 10 11 10 4 6 1 4 4 2 4 4 3 4 3 3 4 2 1 3 4 4 4 3 6 6 9 9 5 5 4 4 5 7 6 5 3 4 5 5 10 10 10 12 8 6 7 7 3 8
8 8 8 9 9 9 10 10 10 10 10 10 11 11 11 12 12 11 12 12 12 12 13 13 13 13 14 14 14 6 4 5 1 2 3 3 7 6 9 9 10 6 5 3 2 4 3 3 3 2 2 3 3 4 5 3 6 2 5 4 5 5 7 8 8 8 2 2 2 4 6 6 5 5 4 4 8 9 8 8 9 11 12 11 10 7 8 6
8 7 8 8 8 9 10 10 10 10 10 10 10 11 11 12 12 11 11 11 11 12 12 12 12 13 14 14 9 4 1 4 2 1 2 4 6 6 8 8 9 4 4 4 2 2 2 4 4 3 2 3 4 5 3 7 7 6 5 8 8 8 9 6 5 0 1 3 4 5 4 6 6 7 6 6 10 10 8 11 13 14 12 12 9 9 9 9
7 8 8 8 9 9 9 9 9 10 10 10 11 11 11 12 12 12 12 11 12 12 12 11 12 13 14 13 4 2 3 6 2 1 5 5 6 8 7 6 5 2 3 4 4 3 4 5 4 4 4 6 7 8 9 7 4 5 7 3 9 10 14 12 11 7 1 4 7 5 5 8 7 11 5 7 11 11 9 9 13 12 11 9 9 9 10 9
5 8 8 9 9 9 9 9 9 10 10 10 11 11 12 12 12 12 12 12 12 12 11 11 11 12 11 5 1 2 3 5 3 2 5 7 7 7 7 3 4 3 5 6 5 5 3 6 5 3 6 6 4 7 4 3 4 5 7 5 9 7 7 6 5 5 7 8 7 5 7 12 8 9 8 15 13 12 12 13 14 13 11 9 10 10 9 9
3 6 8 9 9 9 9 9 9 10 10 11 11 12 12 12 12 13 12 13 12 12 11 10 10 10 7 3 2 5 7 1 3 7 7 6 7 6 7 5 5 4 4 5 5 4 3 3 6 3 5 6 2 5 5 4 6 6 8 5 5 5 7 7 10 11 9 8 4 4 10 10 9 8 13 17 15 14 14 14 14 12 10 10 10 9 8 8
6 7 8 9 9 9 9 9 10 10 11 11 12 12 13 13 13 14 14 13 13 12 11 9 9 9 5 1 2 5 1 4 0 4 5 6 7 6 5 2 8 5 4 5 4 5 4 4 1 2 4 5 5 7 5 6 8 5 5 6 8 7 9 8 11 14 10 10 8 7 8 10 5 2 10 6 8 6 6 6 6 7 7 7 6 7 7 8
6 7 8 8 9 9 9 10 10 11 11 12 12 12 13 14 14 14 14 14 13 12 10 9 4 5 2 2 4 8 1 2 1 3 3 5 6 5 3 3 6 4 6 4 6 4 4 4 3 2 1 3 5 6 4 5 3 3 5 7 10 9 11 14 12 17 10 8 9 9 10 9 7 2 12 15 12 8 8 9 8 7 8 8 7 8 6 6
7 7 8 9 9 9 10 10 10 11 12 12 12 13 14 15 15 14 13 13 11 10 8 6 5 3 3 5 7 6 2 3 0 2 4 3 2 3 5 5 1 4 4 5 4 1 4 3 3 0 4 3 3 5 4 7 2 3 4 7 10 10 12 15 12 14 9 8 5 4 0 3 5 6 14 15 11 9 9 10 9 8 8 8 8 9 7 6
5 7 9 8 9 10 10 11 11 12 12 13 13 14 15 15 15 14 11 9 6 5 3 2 3 3 2 4 8 2 3 2 2 3 3 3 3 2 4 2 4 3 3 4 4 5 4 4 2 3 4 6 5 5 0 0 2 2 4 6 11 10 9 13 9 13 14 4 7 7 3 4 8 10 10 11 9 6 5 5 5 6 8 8 7 7 7 5
3 6 8 9 9 11 12 11 12 13 14 13 14 15 15 15 13 10 7 7 6 5 3 4 3 3 3 6 2 3 2 2 3 3 3 3 4 1 1 2 2 2 3 3 2 4 4 3 3 4 4 6 4 3 5 3 3 5 5 4 6 7 5 7 7 2 2 2 7 4 4 3 6 10 9 8 0 4 6 7 9 10 12 11 9 7 7 7
3 6 7 6 8 12 11 12 14 14 14 14 15 16 16 13 7 5 5 9 4 2 5 3 3 2 3 4 4 2 4 4 3 2 3 3 3 2 3 2 2 0 1 3 1 1 2 1 0 1 3 4 6 6 6 4 3 6 5 4 3 6 3 8 8 4 4 0 1 4 4 7 9 7 4 5 5 5 8 10 13 12 11 12 8 7 6 6
6 7 7 8 10 10 11 9 13 14 13 15 16 15 12 6 4 3 5 5 4 5 4 3 3 2 4 6 1 2 1 1 4 2 2 3 1 1 4 3 3 2 1 2 1 0 1 0 2 1 3 3 2 3 5 4 4 6 7 6 8 5 7 6 4 3 5 4 3 8 6 2 4 4 6 9 9 11 10 13 15 15 12 12 10 7 5 4
4 6 7 7 9 9 9 10 11 11 13 13 15 12 4 2 2 3 3 1 3 2 3 1 4 4 4 1 2 2 4 1 2 1 1 1 2 3 3 3 2 3 2 3 2 1 2 1 2 1 1 4 3 3 3 4 7 5 5 8 5 7 4 4 2 2 6 7 3 7 7 5 6 6 9 12 12 12 13 15 17 13 7 10 9 5 5 2
8 7 7 8 8 8 7 10 10 12 13 14 15 10 4 3 1 1 2 3 2 4 4 5 4 1 6 2 6 2 2 4 1 3 1 1 2 2 3 2 3 3 3 2 1 3 4 2 3 3 2 5 4 3 4 7 4 4 4 6 7 7 8 9 8 3 8 2 5 4 9 8 7 6 5 6 9 10 13 15 11 8 8 10 5 6 7 14
9 9 10 9 9 8 9 9 12 14 14 19 14 2 5 3 3 4 4 3 2 2 1 3 3 5 1 1 5 6 1 3 3 2 2 3 1 2 1 1 3 5 3 3 3 6 2 1 3 0 4 5 7 8 9 10 9 10 9 8 9 10 7 8 6 7 6 10 9 8 10 7 5 6 9 11 11 12 14 12 10 10 10 7 5 8 10 12
10 10 11 9 8 8 9 10 12 15 16 13 4 1 2 2 2 2 3 6 7 8 8 2 8 7 10 9 2 2 2 2 3 0 4 1 3 3 3 3 2 3 2 3 4 6 5 4 4 5 6 8 9 10 11 12 11 12 10 9 10 10 8 7 8 7 6 8 7 7 6 7 6 8 12 14 12 13 14 8 11 10 6 6 7 9 14 13
10 11 10 9 8 9 10 11 13 15 15 9 6 4 3 4 4 2 4 7 9 11 11 10 9 10 10 1 4 3 1 2 3 3 2 0 2 6 5 4 4 4 5 6 4 1 3 4 5 6 9 11 12 10 10 10 7 7 7 7 10 5 10 5 9 6 9 6 3 4 7 7 8 11 17 17 11 13 11 11 12 5 6 4 7 13 13 11
10 10 8 8 9 9 10 11 12 14 16 6 3 3 2 2 0 0 1 5 3 5 8 10 10 11 7 5 3 2 3 2 4 4 1 1 4 4 5 5 7 5 5 7 2 2 2 6 7 12 11 11 10 9 9 10 8 7 8 7 7 7 8 11 13 10 2 1 4 4 6 7 10 16 18 14 10 10 8 6 3 10 10 12 12 13 12 12
8 8 8 9 8 8 10 9 11 12 7 4 1 4 2 1 0 1 0 4 9 9 9 10 12 13 10 2 4 2 1 6 5 6 6 2 5 4 4 5 5 5 4 5 7 4 5 5 17 14 9 9 9 9 9 9 7 6 6 6 8 5 6 5 2 5 2 2 6 7 11 8 13 15 14 13 10 5 3 11 15 13 14 14 14 12 12 12
9 8 8 8 6 7 9 10 11 8 2 2 3 3 2 1 1 2 1 3 6 5 3 1 1 3 1 2 2 1 5 2 5 5 3 4 6 4 2 5 5 4 6 7 9 9 9 5 3 3 7 9 9 7 6 6 8 4 6 7 7 6 8 8 5 5 5 6 6 7 6 5 11 11 8 5 2 3 11 14 15 12 12 10 11 14 13 13
8 8 7 7 5 3 5 6 4 0 2 0 4 1 1 2 1 2 2 4 3 5 1 1 1 0 2 2 1 2 2 2 3 1 2 1 2 4 4 3 3 6 6 6 8 10 10 9 7 4 4 4 4 5 7 5 6 6 6 7 6 6 5 5 7 8 5 4 2 3 5 3 4 5 7 5 2 8 9 16 12 12 12 12 13 11 10 10
9 8 7 6 4 1 2 3 2 1 3 1 3 2 1 1 2 1 1 3 6 1 2 4 0 2 1 3 2 2 2 4 2 2 1 2 2 2 2 2 3 4 3 2 6 3 2 3 1 1 2 3 4 5 5 2 6 4 3 3 3 2 3 4 5 6 3 0 2 2 1 7 1 8 9 13 4 11 9 11 11 10 10 11 10 9 9 9
9 8 7 6 5 5 1 1 1 1 2 2 2 3 1 1 2 1 1 3 5 2 3 3 1 1 1 1 1 1 2 2 1 1 1 1 1 1 2 1 2 2 0 0 3 3 3 6 4 1 0 2 2 6 5 7 5 5 0 3 4 4 4 2 2 2 6 3 5 5 5 7 7 4 11 15 6 9 10 9 8 9 10 10 9 8 8 8
10 9 8 8 8 10 2 3 3 2 2 2 2 2 2 1 1 1 1 4 3 1 2 1 1 1 1 1 2 2 2 4 3 1 3 1 1 2 1 3 2 1 3 1 3 0 1 3 2 2 2 3 6 6 2 1 3 1 1 5 2 1 2 1 3 4 4 4 6 5 7 2 5 5 11 11 10 6 6 7 6 7 8 9 8 8 7 7
10 8 8 7 7 7 2 1 2 0 2 2 2 4 2 1 1 1 1 3 1 1 2 2 3 1 1 1 2 2 2 2 1 2 0 1 0 1 3 4 2 5 3 7 5 1 1 1 3 4 4 5 5 1 0 1 3 1 1 0 2 1 2 4 3 3 4 1 7 2 6 5 7 6 8 3 10 6 4 6 7 7 6 7 6 6 7 5
6 8 10 10 7 3 1 1 3 2 4 3 5 4 4 1 0 1 2 6 3 1 1 1 1 4 4 5 3 4 3 2 2 2 3 1 4 0 1 2 2 2 2 3 6 9 1 2 2 1 5 5 2 1 1 2 1 0 1 2 3 3 4 2 2 2 2 3 8 8 10 6 4 6 2 4 4 8 7 5 7 7 6 6 6 6 4 6
6 4 8 11 5 3 5 3 2 4 5 5 4 3 0 0 2 2 7 1 3 0 0 1 1 1 5 5 3 5 2 4 4 4 2 1 3 2 1 1 1 2 1 2 6 8 1 1 1 3 4 1 3 1 1 0 0 1 1 1 4 7 1 0 1 3 0 5 0 5 2 12 4 3 7 5 6 12 13 12 10 9 6 5 5 4 5 5
5 5 6 7 1 0 5 1 3 2 5 5 2 1 0 3 2 8 2 2 1 2 1 2 2 2 6 2 2 2 2 4 3 3 4 4 3 5 4 2 3 1 2 3 3 2 3 7 5 1 2 5 2 1 0 1 1 2 2 1 1 3 0 2 2 1 4 6 0 1 7 2 6 5 5 4 3 3 5 10 12 12 9 7 6 6 4 4
5 4 4 1 3 1 1 3 4 4 6 3 2 1 2 2 8 6 2 2 2 2 1 2 1 3 1 2 2 2 3 1 3 4 1 1 2 5 7 7 4 3 2 1 4 2 4 1 5 3 3 3 3 5 2 1 3 4 3 3 1 2 2 3 3 3 3 0 4 3 5 2 3 6 8 4 4 6 10 10 8 9 9 7 6 5 4 4
3 2 2 2 1 2 3 4 4 6 6 2 3 2 1 6 6 4 10 8 5 1 3 1 0 0 1 2 2 3 1 2 3 2 3 2 3 2 4 9 7 3 3 1 1 1 4 4 3 5 3 6 7 7 5 2 7 8 4 6 6 3 1 4 3 6 5 3 1 2 5 3 4 2 5 8 7 9 9 10 10 9 7 7 6 5 5 5
3 2 2 1 1 2 4 3 5 3 1 3 3 5 6 9 1 4 4 5 2 0 2 2 0 0 4 3 4 4 4 1 2 2 2 3 3 3 2 2 7 5 1 1 3 1 5 6 3 6 1 7 9 7 1 1 1 2 1 4 1 4 1 7 4 3 3 4 6 4 4 1 1 4 7 6 9 9 7 9 8 8 6 5 6 6 5 5
2 2 2 1 2 2 5 4 4 2 4 4 4 7 13 7 3 3 2 1 1 3 3 1 1 2 4 3 2 4 3 2 1 1 2 3 4 4 2 2 3 9 5 6 1 2 0 3 2 2 3 5 1 1 3 1 1 1 3 2 4 2 2 2 3 3 1 1 10 3 4 6 1 5 5 7 9 7 6 6 6 7 5 5 6 5 4 4
2 2 1 2 2 4 5 5 5 3 2 5 5 9 6 2 4 2 2 2 1 2 3 2 3 6 3 4 3 3 2 2 1 1 2 2 3 7 5 4 4 5 5 4 3 2 3 3 2 2 1 3 1 1 3 2 1 6 1 4 1 1 2 1 3 0 2 6 7 4 7 7 3 5 5 6 8 4 5 5 5 6 4 5 4 4 3 3
1 0 3 4 3 6 5 6 6 5 4 8 12 12 2 4 4 9 2 1 1 1 2 5 2 4 2 3 3 5 1 3 1 4 2 2 3 3 1 2 5 4 2 1 3 2 3 4 5 5 6 1 1 1 4 1 2 4 3 0 1 2 3 2 1 3 4 6 4 3 6 6 5 4 3 4 8 7 6 4 4 5 4 4 4 3 3 3
2 2 4 3 9 7 6 6 4 6 6 10 10 10 2 5 3 1 3 2 2 3 2 1 1 2 2 2 3 2 9 3 5 5 2 3 3 3 2 3 1 4 5 5 0 0 0 2 3 2 3 1 1 2 2 1 2 3 1 2 2 1 3 3 3 3 3 9 6 7 8 10 2 1 7 7 7 8 8 5 4 3 3 2 2 1 1 1
4 2 5 3 5 8 8 7 2 5 7 11 7 7 1 1 5 8 2 2 1 2 2 2 2 3 4 7 6 5 1 5 4 4 3 1 2 5 4 6 2 1 5 2 1 2 1 2 3 1 1 1 1 2 4 4 3 1 1 3 1 1 1 1 2 5 4 5 6 7 7 6 1 4 5 6 8 7 7 7 4 3 3 1 2 2 2 2
1 2 0 3 6 7 8 6 7 10 8 4 5 4 2 3 0 2 5 2 0 1 2 3 5 7 5 5 11 10 8 7 6 5 2 3 3 3 3 4 4 2 2 1 1 2 0 2 5 3 2 2 3 2 2 3 3 1 2 1 2 2 3 4 9 1 3 4 6 7 12 4 1 4 5 6 5 9 4 7 5 4 3 5 4 5 4 3
4 3 2 2 7 8 10 12 8 5 4 10 9 6 4 5 2 4 6 4 6 4 4 4 6 6 7 10 7 3 1 1 2 2 3 4 2 1 1 5 3 1 1 1 2 1 2 0 1 5 5 7 6 2 0 1 1 2 2 5 3 1 1 4 8 4 3 3 2 5 8 2 2 4 2 6 6 6 8 8 7 7 8 8 7 6 5 5
6 3 2 3 2 11 8 8 7 7 8 7 2 4 5 4 4 5 7 7 4 6 3 6 7 7 8 6 3 5 4 3 3 3 1 1 1 5 3 3 3 3 2 0 3 1 6 1 1 4 6 7 9 8 3 3 1 1 0 1 2 2 2 2 6 1 2 3 7 7 8 1 2 1 1 3 6 8 9 9 9 8 7 7 7 6 7 5
5 4 2 1 3 7 9 9 8 10 9 7 8 8 6 5 5 5 6 6 5 3 7 4 5 9 5 5 5 8 5 4 3 7 4 4 1 3 5 3 4 1 1 1 1 5 2 3 3 1 2 5 6 1 4 3 4 2 1 3 0 2 1 3 2 2 5 6 10 6 9 5 2 3 4 4 4 4 4 3 6 7 6 7 6 5 4 4
2 1 3 1 2 7 12 6 5 8 11 10 9 11 9 6 7 8 6 7 6 6 3 4 7 1 3 2 3 1 2 4 0 3 1 1 2 1 6 5 5 4 4 2 3 1 2 3 1 2 3 4 5 7 2 1 1 0 2 2 3 2 4 2 4 2 5 1 3 1 5 3 4 7 6 6 4 4 4 6 4 4 7 7 5 5 5 4
7 4 4 1 4 5 6 4 3 3 5 9 10 10 10 9 5 6 6 6 6 4 5 1 0 1 2 1 2 4 4 3 3 2 1 1 2 1 1 6 5 2 1 1 3 3 1 0 2 5 6 9 9 5 1 1 1 3 3 4 7 6 4 4 3 7 10 3 6 10 12 12 13 14 8 2 6 5 6 6 6 4 2 2 3 3 3 3
2 3 5 5 3 7 5 6 6 5 3 3 7 4 11 10 5 3 10 5 7 8 4 5 3 2 3 5 5 5 5 4 4 5 5 2 1 2 2 3 5 3 1 2 2 2 1 2 5 5 7 9 8 9 11 10 10 8 8 9 7 7 5 5 8 9 3 7 15 10 8 7 10 11 9 6 4 5 6 5 5 4 4 4 3 2 2 2
3 4 3 4 6 7 13 10 11 8 8 4 3 3 6 8 8 7 4 5 3 1 4 1 6 7 7 6 4 3 4 5 5 4 1 1 3 3 1 1 2 3 4 1 0 1 1 3 3 4 4 7 6 8 7 8 7 8 10 12 14 12 10 12 9 5 5 11 15 11 13 13 12 11 11 11 5 4 2 3 4 5 4 4 2 1 2 2
2 2 3 5 2 4 13 7 11 12 11 8 4 4 6 8 9 8 4 4 4 2 5 4 5 7 8 6 2 2 1 1 4 1 2 2 2 1 1 2 0 4 0 1 0 1 1 3 5 4 6 8 10 10 8 9 7 8 12 14 15 16 17 12 8 8 11 11 10 12 12 15 12 14 8 3 2 3 3 5 5 5 3 4 2 2 2 2
2 2 2 1 1 3 1 9 7 11 12 10 5 8 3 4 8 4 1 6 2 4 4 5 3 1 3 2 4 4 1 1 2 3 0 5 1 2 1 1 2 1 1 1 0 3 1 5 7 2 1 4 5 3 2 4 6 11 11 13 15 16 12 8 10 10 8 10 14 15 16 18 8 3 3 1 2 4 3 1 3 4 5 4 2 1 1 1
1 1 0 3 1 2 1 2 7 9 8 9 10 8 3 6 9 4 2 2 4 4 5 7 6 4 2 4 1 1 1 5 2 2 2 3 4 1 4 2 5 2 1 1 0 1 0 3 3 0 3 6 6 2 2 2 6 6 10 16 18 15 13 12 12 6 9 11 11 10 11 11 1 1 2 2 1 2 1 2 2 3 5 4 1 1 1 1
1 2 1 2 1 3 5 2 2 5 9 9 7 7 6 7 6 3 5 2 4 4 4 7 9 6 1 4 3 2 3 5 4 3 3 2 1 0 0 0 1 4 2 3 0 2 1 0 1 2 5 7 9 2 1 1 4 9 17 22 17 14 15 14 12 13 14 12 13 12 12 4 4 5 3 2 3 2 3 2 3 2 2 2 1 2 2 1
Wind_Direction
19 17 15 12 9 5 3 1 0 358 356 356 353 354 353 355 351 351 352 350 346 348 345 343 344 342 338 336 333 329 324 296 278 245 235 241 140 124 95 115 141 146 159 163 186 155 183 208 213 151 210 112 189 241 100 185 265 136 210 201 256 243 268 332 336 346 350 333 330 326 343 334 292 206 189 2 259 240 263 264 255 245 246 232 232 228 147 146
15 14 12 9 6 2 358 356 357 354 354 354 353 351 351 348 347 345 345 347 346 342 343 343 341 341 340 334 332 328 318 268 270 264 248 126 119 118 118 128 137 161 162 212 187 200 214 195 217 158 207 232 150 205 128 235 138 195 263 237 252 265 282 332 315 309 348 325 330 312 315 344 319 18 351 299 284 296 300 281 283 280 263 245 236 195 149 150
11 4 5 5 1 359 356 353 352 353 350 349 350 349 347 344 343 341 342 343 343 343 340 341 342 338 337 335 330 325 320 289 274 275 23 9 119 121 132 138 154 165 179 187 195 227 244 281 203 170 206 268 152 185 137 197 158 218 224 253 260 272 279 282 304 317 331 309 299 325 343 346 311 316 333 256 278 288 272 278 294 267 276 288 274 212 170 170
5 357 353 358 355 354 352 350 348 347 349 347 344 346 341 340 339 339 338 340 339 338 339 339 336 338 332 329 330 320 289 283 283 85 56 84 110 122 137 151 165 179 231 280 285 247 268 318 300 174 263 233 265 192 157 186 116 185 192 227 251 280 316 307 314 301 322 35 343 317 323 309 293 276 292 293 294 245 254 253 253 266 267 285 316 337 173 191
357 353 351 351 350 348 346 346 343 343 344 344 342 340 340 336 334 334 336 335 336 336 335 335 335 331 332 324 325 308 321 299 93 25 107 110 115 127 142 156 172 184 220 260 305 277 269 257 250 239 231 281 246 250 221 220 184 305 241 249 265 295 289 288 294 327 31 20 287 286 301 293 317 287 259 232 251 255 252 273 283 291 297 297 302 309 316 295
348 348 344 343 345 343 341 339 340 339 341 340 339 336 335 334 331 330 332 331 329 331 332 332 332 332 325 321 315 285 313 305 197 123 140 126 125 129 146 159 177 209 217 250 240 214 229 229 242 220 240 228 253 254 236 216 176 242 234 246 242 247 254 267 266 294 72 312 295 293 285 314 290 284 275 265 248 256 254 270 275 275 278 285 288 289 287 278
342 340 336 336 336 339 337 334 335 337 337 337 336 334 333 331 329 328 325 327 324 326 329 332 330 329 326 307 257 281 249 268 269 118 119 146 127 131 140 145 167 239 243 232 225 210 213 245 207 246 243 248 247 250 256 266 241 229 259 295 291 297 282 289 293 302 213 264 269 273 306 275 282 284 279 255 254 259 266 262 263 267 269 273 276 273 265 263
333 329 327 328 331 334 334 332 332 332 334 334 331 331 330 328 325 323 324 320 322 321 326 327 332 324 345 323 259 248 218 259 56 142 121 124 125 125 129 143 162 204 215 219 207 219 205 235 232 242 253 255 281 281 320 353 302 273 255 241 254 253 268 275 276 270 277 273 275 275 269 262 267 272 299 270 270 269 266 265 266 269 271 268 266 267 259 260
318 317 322 324 325 328 327 328 328 329 331 330 329 329 327 324 322 320 317 317 316 317 319 325 320 329 313 281 286 295 257 43 344 119 157 133 129 144 153 137 204 190 215 230 239 241 231 223 249 242 281 277 277 304 316 322 255 234 270 323 322 311 313 310 308 296 282 280 242 227 251 268 268 286 268 268 268 262 259 262 264 265 264 262 260 255 254 251
314 310 317 319 318 321 324 322 324 327 327 326 326 325 323 320 318 316 314 312 311 313 310 317 325 316 319 209 252 256 270 225 64 157 149 126 122 141 227 174 172 206 225 222 239 243 227 261 50 48 28 316 284 273 275 246 270 334 319 312 313 301 298 281 271 274 266 262 257 241 250 262 262 293 279 268 260 264 268 264 271 269 256 254 253 255 251 250
301 302 312 314 313 318 317 319 321 321 321 323 321 320 318 315 313 311 309 307 306 303 304 294 355 341 260 212 242 255 108 276 322 72 117 120 138 153 202 231 171 222 228 247 237 242 275 278 33 349 1 263 350 289 256 269 306 352 331 318 292 285 273 270 261 260 261 260 238 228 256 271 274 239 257 272 273 266 268 269 263 265 274 277 270 270 269 262
299 304 314 310 313 315 314 315 314 315 318 319 318 316 314 311 308 306 303 302 299 297 290 283 230 253 283 246 236 235 331 40 221 131 110 177 127 69 4 354 280 233 254 262 235 306 34 28 30 224 239 71 261 305 278 357 8 352 12 305 284 280 280 270 261 265 249 248 201 142 324 291 274 229 241 249 262 267 255 257 259 259 257 259 265 265 262 255
286 301 309 307 307 314 313 310 313 315 316 317 316 313 312 310 306 302 300 295 288 283 281 251 189 241 255 250 231 66 286 104 86 122 123 73 85 53 31 359 346 349 13 340 9 2 358 14 6 288 271 292 292 276 163 296 312 303 242 252 286 280 264 270 261 242 242 253 123 93 267 184 244 250 245 251 249 268 276 277 267 258 262 262 269 279 279 276
279 303 297 299 305 311 310 309 316 317 316 316 316 314 312 309 304 299 290 277 278 274 213 152 242 226 234 255 52 290 2 315 131 162 122 145 143 74 189 61 317 317 40 348 61 359 10 9 1 277 300 282 274 17 301 297 281 259 265 245 264 307 270 287 270 267 194 73 120 119 233 247 277 280 291 284 46 308 289 284 279 277 275 275 276 277 276 278
294 279 284 294 303 304 299 302 315 316 315 313 315 314 311 308 310 299 280 278 244 210 172 187 243 220 203 251 71 102 275 303 189 97 124 181 155 148 174 162 138 250 54 28 31 309 32 347 323 299 261 238 253 278 287 276 253 260 293 231 219 208 256 264 280 152 198 67 154 95 267 250 252 260 277 334 323 307 300 292 281 273 271 275 274 269 267 268
243 269 282 293 298 299 297 306 317 316 314 316 315 312 302 287 285 330 318 350 115 159 160 171 186 243 320 275 174 29 229 199 135 12 23 336 228 343 122 137 128 119 188 114 66 231 256 154 219 294 295 268 252 266 286 309 267 244 230 271 268 249 271 303 266 147 181 93 244 159 225 245 280 290 322 310 294 284 276 272 270 266 273 283 286 279 279 299
263 267 280 284 290 289 299 304 297 307 314 312 314 305 305 310 272 316 4 168 148 184 223 352 150 179 275 75 80 213 149 102 257 150 64 301 318 154 131 125 176 155 138 125 191 120 167 178 124 317 214 269 263 258 298 257 276 261 223 252 235 251 278 255 324 278 131 141 203 224 246 234 259 275 272 262 260 262 265 262 265 273 278 276 281 298 285 349
238 243 260 263 272 283 281 287 297 312 314 317 312 296 288 192 343 239 226 258 196 212 247 243 256 243 240 118 265 177 105 117 156 130 77 23 285 198 184 192 104 152 159 151 151 199 145 201 157 215 207 218 233 248 228 248 229 271 294 303 294 304 308 297 310 316 318 239 263 240 231 244 245 253 260 281 289 279 272 274 275 297 294 288 313 313 34 61
242 241 246 253 265 276 282 295 316 316 318 324 300 327 219 232 241 252 264 164 210 150 203 177 201 174 19 180 127 106 109 114 107 179 163 160 257 235 203 324 151 160 180 196 173 185 140 267 152 40 236 219 217 210 224 241 259 271 283 287 297 298 296 288 289 297 289 284 281 272 279 288 293 297 287 280 266 266 263 270 295 289 281 305 340 48 63 68
242 246 256 269 277 288 305 310 313 314 325 332 328 224 201 224 193 166 221 227 248 266 309 266 209 277 298 297 123 51 86 240 144 216 98 286 155 174 178 200 173 224 228 191 135 210 136 170 183 196 216 230 244 233 231 242 247 262 266 262 263 273 277 294 287 287 282 292 270 285 303 307 300 285 278 266 265 265 271 275 267 270 304 37 61 61 69 64
248 249 256 267 279 288 304 313 313 313 320 310 289 286 358 13 328 310 341 263 247 249 261 266 258 267 268 114 147 153 240 198 249 150 186 222 230 158 177 192 153 206 224 227 158 9 126 210 219 213 220 237 245 257 272 282 292 300 296 290 282 268 278 277 287 288 288 281 313 312 291 288 294 286 274 272 277 272 268 262 258 290 58 71 55 69 62 62
247 255 262 270 280 293 302 308 311 312 313 274 278 352 79 52 347 268 262 294 281 283 266 254 259 260 258 289 73 35 113 307 195 129 149 228 168 218 160 198 170 212 198 201 106 85 188 223 234 227 226 241 253 262 266 270 275 281 275 279 286 276 277 271 263 260 275 66 280 294 292 293 286 275 275 277 269 264 254 249 25 77 59 49 49 61 56 51
246 251 258 266 276 293 300 306 310 313 318 318 348 50 54 83 85 311 255 270 265 249 247 251 246 238 243 144 91 112 286 232 257 156 171 202 128 260 153 187 218 224 240 189 196 169 235 211 236 228 235 241 247 249 257 260 247 244 268 284 263 275 272 290 245 334 352 4 311 309 299 294 279 272 270 270 263 258 288 64 70 69 73 63 59 55 57 51
241 244 253 257 271 290 304 318 310 299 239 346 49 43 41 16 285 258 244 245 299 257 242 283 327 345 2 216 101 293 210 239 218 198 152 183 171 193 229 210 222 240 233 216 207 225 229 243 27 169 209 225 251 259 269 267 262 237 233 241 265 269 261 260 304 353 339 320 293 291 278 271 264 269 279 283 232 356 63 83 72 68 70 74 67 61 55 54
238 242 243 253 255 292 319 334 298 235 33 269 104 64 59 20 352 356 289 282 213 244 55 238 55 24 100 146 118 203 192 254 72 79 173 308 213 110 227 215 220 233 241 236 234 238 256 256 255 202 257 261 258 269 252 255 279 276 257 252 272 292 316 344 349 0 3 318 12 47 348 254 298 330 333 300 299 56 54 68 56 52 53 56 56 53 54 59
234 232 232 229 217 209 357 281 156 63 265 82 75 111 74 72 306 14 301 272 279 163 7 189 211 206 13 168 98 235 12 203 27 50 333 77 10 275 50 254 173 245 250 256 250 256 284 46 72 172 246 246 255 263 264 287 264 269 256 20 2 4 20 1 357 43 313 180 266 67 78 274 259 280 271 269 283 88 61 69 71 64 61 53 53 51 46 49
234 232 220 209 181 120 230 128 4 296 242 117 100 85 86 50 293 315 264 238 270 139 149 355 5 224 40 103 164 116 204 152 160 83 243 337 300 135 282 176 76 295 179 0 37 283 191 210 89 40 237 271 288 263 251 224 245 258 304 357 21 38 12 352 333 236 250 261 276 271 229 254 271 236 247 247 119 104 82 74 71 70 67 68 65 53 49 37
228 226 214 198 181 167 310 327 291 244 74 94 79 93 87 58 8 228 208 314 267 120 119 169 14 273 337 162 270 249 52 130 144 146 24 36 319 135 140 265 260 242 149 122 190 289 242 187 177 164 180 204 219 227 287 307 198 203 302 46 355 22 285 292 251 255 252 310 288 214 208 279 251 234 237 230 106 105 95 96 83 80 76 77 69 62 56 45
225 209 187 184 163 185 337 295 310 219 159 69 76 56 43 47 258 276 307 253 147 119 309 84 309 212 137 146 225 239 174 202 316 125 275 160 308 354 184 245 297 297 163 177 220 233 359 84 187 184 163 214 221 239 28 154 240 155 241 139 278 239 234 219 243 267 302 278 264 232 188 219 287 266 275 80 110 121 122 103 88 72 73 72 70 63 55 46
163 170 156 143 116 107 206 98 236 124 127 104 85 87 59 28 0 225 150 234 37 237 97 128 216 156 159 176 196 170 201 159 79 123 194 221 149 28 242 135 308 337 291 243 239 239 188 254 70 146 217 225 162 138 71 29 74 184 267 302 302 263 238 227 201 244 314 241 257 232 206 181 298 286 342 109 170 141 125 114 113 103 88 80 70 63 60 56
91 108 152 154 153 162 136 211 136 124 118 103 106 93 105 223 220 172 224 226 356 155 97 153 139 28 181 215 189 175 240 133 140 151 139 201 133 234 259 340 48 342 330 321 277 265 200 95 50 246 232 277 111 97 30 65 73 68 13 13 341 301 150 124 264 130 156 270 264 318 208 181 167 284 64 37 113 148 155 153 144 125 111 97 78 65 62 54
75 82 150 171 71 287 173 185 134 122 115 121 123 126 197 247 190 215 197 92 233 174 168 129 121 204 201 64 325 154 174 155 147 200 182 181 164 168 203 191 154 249 270 184 263 80 224 218 210 154 300 180 183 333 53 99 110 132 174 272 88 285 39 289 84 321 212 231 243 21 42 350 241 262 302 80 63 75 119 136 139 131 124 108 94 83 52 47
56 54 80 165 73 196 90 122 134 134 122 119 107 77 186 173 244 161 224 163 272 73 160 16 156 204 92 49 250 85 359 194 148 207 242 189 201 226 198 201 205 176 236 25 338 331 260 144 180 194 33 226 142 153 202 344 194 165 171 160 156 288 241 254 249 216 252 82 277 118 42 217 231 279 266 122 65 66 79 87 97 107 110 102 89 86 77 59
54 351 101 81 206 47 93 117 133 150 124 136 111 87 214 221 224 121 193 194 211 167 71 82 326 296 268 231 174 139 308 219 138 202 147 193 159 250 225 210 219 265 183 336 195 213 296 316 240 134 251 163 186 198 182 210 154 200 201 161 180 187 217 278 245 256 250 227 266 268 356 226 121 251 23 84 81 76 69 76 82 82 80 90 97 76 60 57
332 357 23 141 213 151 132 144 145 168 92 133 122 170 212 228 130 169 211 203 164 168 146 44 208 180 227 212 227 212 158 215 189 144 205 206 226 218 199 214 199 176 114 49 233 108 213 229 199 164 328 149 182 226 182 101 115 215 215 53 54 228 179 246 255 278 300 315 300 267 209 232 180 130 104 89 88 78 81 85 88 87 88 81 70 67 58 39
325 39 9 219 194 147 143 147 142 156 143 125 175 202 220 190 197 144 243 25 193 146 122 108 158 229 251 271 278 252 67 172 163 107 267 208 241 256 215 246 196 169 162 179 217 294 321 256 71 84 65 184 224 13 212 157 237 276 77 208 206 305 147 274 323 256 328 311 253 233 300 289 259 83 89 100 90 83 84 84 80 82 81 76 68 64 63 61
51 357 261 190 219 143 139 141 142 108 145 174 192 239 218 265 254 227 193 160 333 37 133 223 212 177 205 228 184 183 181 53 240 142 260 178 278 223 239 250 124 183 192 142 311 230 227 261 99 125 283 246 30 48 354 2 64 78 212 238 320 249 100 153 246 292 194 235 264 267 277 283 295 273 129 120 101 111 75 85 84 76 69 66 62 56 48 40
50 0 280 261 171 135 139 143 143 139 178 201 216 226 83 232 181 244 72 103 175 47 150 175 267 73 254 254 190 156 16 133 186 137 257 169 265 95 212 173 26 41 348 295 176 283 77 318 264 219 224 118 311 21 333 215 30 176 216 117 96 274 313 254 107 257 254 249 281 195 260 253 245 256 111 172 135 122 113 92 86 73 59 65 59 55 38 18
108 10 286 214 149 145 132 147 156 156 201 218 222 233 207 219 323 326 21 74 27 86 158 278 171 310 358 297 305 277 164 182 193 194 139 201 211 186 134 19 88 29 34 42 73 327 197 203 288 31 64 111 63 105 236 248 350 126 118 341 183 116 205 253 197 219 200 261 265 255 255 268 280 55 299 164 119 124 127 116 85 103 108 119 101 69 32 0
165 122 231 62 137 126 131 135 130 197 214 223 211 223 58 259 217 249 155 121 169 139 209 201 163 244 286 278 306 287 212 207 208 252 202 270 229 47 39 19 89 49 34 44 58 352 310 208 250 120 312 12 314 163 222 205 232 35 93 275 272 219 216 120 335 238 227 264 246 281 257 260 2 314 31 70 110 121 126 131 151 145 154 122 155 185 208 228
263 272 306 131 135 129 129 138 198 217 219 248 232 223 191 221 16 342 326 125 160 296 186 183 177 208 213 240 250 240 247 238 229 227 220 264 236 301 36 33 349 57 346 47 103 347 325 300 241 322 345 194 223 80 107 83 99 102 67 229 218 285 303 274 264 232 210 223 243 240 256 239 167 312 66 80 86 99 116 137 143 167 169 193 194 214 214 216
182 207 157 130 142 157 149 180 211 199 223 220 215 178 218 131 163 213 204 212 205 216 209 234 230 232 224 236 250 255 310 273 259 258 213 229 226 244 38 283 32 31 58 58 145 300 133 101 33 259 246 263 263 289 29 162 162 180 163 252 268 355 348 262 269 259 309 243 321 273 286 213 255 268 52 121 128 145 160 159 176 183 188 199 200 204 210 208
203 212 51 275 192 180 176 212 200 204 221 238 274 228 202 191 210 197 211 181 212 211 220 206 208 227 228 243 252 262 232 243 174 218 238 264 40 59 214 20 346 17 36 273 73 278 79 91 223 265 272 288 294 282 57 16 89 351 239 111 102 192 187 240 255 141 251 306 292 265 248 286 227 123 168 148 155 165 177 176 178 179 178 191 193 193 197 194
203 187 162 178 210 217 193 194 202 212 222 233 215 233 209 232 215 222 227 209 192 192 220 222 233 220 256 219 225 237 205 262 235 225 255 228 154 76 32 10 4 68 352 264 120 263 72 291 109 303 298 303 289 79 32 358 45 68 21 311 11 261 217 222 196 186 248 210 246 245 247 267 240 197 225 183 179 180 173 175 169 169 174 179 181 183 178 182
218 99 79 136 170 220 207 212 222 206 215 214 213 218 223 227 223 235 232 224 204 209 206 226 231 192 214 217 261 299 272 244 265 319 84 4 92 59 22 33 351 99 41 1 42 232 155 221 151 183 239 246 257 255 252 88 34 350 216 259 282 242 254 305 275 238 251 183 45 281 277 241 163 195 208 203 185 196 187 188 194 180 173 170 174 181 178 180
199 208 166 109 203 240 259 302 326 263 223 211 222 225 222 233 215 197 205 250 237 228 233 252 285 235 250 273 249 232 239 257 193 251 106 202 117 29 57 36 56 82 89 339 6 8 163 308 175 210 229 246 254 281 184 144 141 269 287 285 273 268 272 257 270 264 261 308 274 257 261 284 284 274 272 209 181 210 216 197 187 167 135 145 159 170 174 175
312 232 161 181 144 235 241 220 222 232 240 218 225 188 223 224 231 216 173 228 219 230 224 224 202 196 216 207 234 249 238 238 232 222 229 199 113 112 101 88 81 71 158 64 307 76 220 222 229 219 230 247 262 274 286 295 284 275 270 266 264 255 238 228 222 252 20 325 269 260 275 279 275 291 298 297 272 248 247 205 167 153 158 170 181 159 165 193
193 261 212 180 202 190 209 217 219 223 243 278 280 224 222 220 214 220 157 216 43 296 196 255 221 224 227 215 189 219 213 228 217 228 156 181 145 157 77 196 110 164 154 101 64 123 147 240 242 254 249 257 249 257 266 277 278 279 274 274 271 263 249 244 246 239 233 241 262 280 285 279 277 276 284 291 305 274 270 155 148 142 137 136 126 171 245 255
271 342 296 306 259 187 209 198 196 213 228 234 261 261 247 229 226 220 180 177 159 261 188 219 216 209 224 226 133 205 203 212 246 108 167 64 84 96 102 95 337 123 256 75 53 197 107 258 246 224 254 258 259 258 261 267 278 278 272 270 268 265 262 260 261 236 235 252 260 265 266 273 279 282 297 300 52 78 76 85 92 107 148 145 176 210 235 253
221 255 271 26 344 358 23 191 181 192 226 219 229 229 238 243 244 204 43 153 182 211 213 229 220 65 106 106 167 189 209 109 153 154 25 105 340 143 185 222 150 17 90 131 135 302 136 258 116 23 283 272 266 276 269 251 252 261 265 267 264 262 269 276 268 262 275 268 266 270 275 272 281 77 111 49 57 68 67 141 143 177 170 160 164 162 272 261
312 57 9 317 252 209 105 206 185 190 210 219 230 230 217 222 244 243 160 355 185 188 184 212 142 106 38 123 164 190 146 156 129 147 126 146 176 285 114 293 85 147 109 49 322 287 52 261 351 73 314 278 276 267 290 288 285 278 274 264 258 261 272 258 256 258 255 258 263 269 262 264 282 308 83 159 126 123 134 65 101 88 85 82 73 266 268 264
82 281 231 278 296 185 143 211 206 177 220 216 218 217 219 220 239 240 258 92 52 35 72 110 144 123 188 128 197 193 126 124 118 105 111 89 45 83 84 173 140 148 206 156 217 137 225 131 209 233 247 261 268 358 101 93 285 276 249 248 256 258 253 263 266 260 255 262 264 261 260 245 185 183 165 190 87 9 60 48 38 7 85 130 210 250 268 281